START_TIME,STEP,MOV.,M29,t_acc.,H22,t_acc.,H26,t_acc.,H30,t_acc.
1979-07-18 09:00:31.830 ,0,0,0.,24.0,0.,24.0,0.,24.0,0.,24.0
1979-07-18 09:00:55.830 ,0,1,0.,24.0,0.,24.0,0.,24.0,0.,24.0
1979-07-18 09:01:19.830 ,0,0,0.,24.0,0.,24.0,0.,24.0,0.,24.0
1979-07-18 09:01:43.830 ,1,1,0.,24.0,0.,24.0,0.,24.0,0.,24.0
1979-07-18 09:02:07.830 ,1,0,0.,24.0,0.,24.0,0.,24.0,0.,24.0
1979-07-18 09:02:31.830 ,2,1,0.,24.0,0.,24.0,0.,24.0,0.,24.0
1979-07-18 09:02:55.830 ,2,0,0.,24.0,0.,24.0,0.,24.0,0.,24.0
1979-07-18 09:03:19.830 ,3,1,0.,24.0,0.,24.0,0.,24.0,0.,24.0
1979-07-18 09:03:43.830 ,3,0,0.,24.0,0.,24.0,0.,24.0,0.,24.0
1979-07-18 09:04:07.830 ,4,1,0.,24.0,0.,24.0,0.,24.0,0.,24.0
1979-07-18 09:04:31.830 ,4,0,0.,24.0,0.,24.0,0.,24.0,0.,24.0
1979-07-18 09:04:55.830 ,5,1,0.,24.0,0.,24.0,0.,24.0,0.,24.0
1979-07-18 09:05:19.830 ,5,0,0.,24.0,0.,24.0,0.,24.0,0.,24.0
1979-07-18 09:05:43.830 ,6,1,0.,24.0,0.,24.0,0.,24.0,0.,24.0
1979-07-18 09:06:07.830 ,6,0,0.,24.0,0.,24.0,0.,24.0,0.,24.0
1979-07-18 09:06:31.830 ,7,0,0.,24.0,0.,24.0,0.,24.0,0.,24.0
1979-07-18 09:06:55.830 ,7,0,0.,24.0,0.,24.0,0.,24.0,0.,24.0
1979-07-18 09:07:19.830 ,5,1,0.,24.0,0.,24.0,0.,24.0,0.,24.0
1979-07-18 09:07:43.830 ,1,1,0.,24.0,0.,24.0,0.,24.0,0.,24.0
1979-07-18 09:08:07.830 ,2,1,0.,24.0,0.,24.0,0.,24.0,0.,24.0
1979-07-18 09:08:31.830 ,6,1,0.,24.0,0.,24.0,0.,24.0,0.,24.0
1979-07-18 09:08:55.830 ,5,1,0.,24.0,0.,24.0,0.,24.0,0.,24.0
1979-07-18 09:09:19.830 ,1,1,0.,24.0,0.,24.0,0.,24.0,0.,24.0
1979-07-18 09:09:43.830 ,2,1,0.,24.0,0.,24.0,0.,24.0,0.,24.0
1979-07-18 09:10:07.830 ,6,1,0.,24.0,0.,24.0,0.,24.0,0.,24.0
1979-07-18 09:10:31.830 ,5,1,0.,24.0,0.,24.0,0.,24.0,0.,24.0
1979-07-18 09:10:55.830 ,1,1,0.,24.0,0.,24.0,0.,24.0,0.,24.0
1979-07-18 09:11:19.830 ,2,1,0.,24.0,0.,24.0,0.,24.0,0.,24.0
1979-07-18 09:11:43.830 ,6,1,0.,24.0,0.,24.0,0.,24.0,0.,24.0
1979-07-18 09:12:07.830 ,5,1,0.,24.0,0.,24.0,0.,24.0,0.,24.0
1979-07-18 09:12:31.830 ,1,1,0.,24.0,0.,24.0,0.,24.0,0.,24.0
1979-07-18 09:12:55.830 ,2,1,0.,24.0,0.,24.0,0.,24.0,0.,24.0
1979-07-18 09:13:19.830 ,6,1,0.,24.0,0.,24.0,0.,24.0,0.,24.0
1979-07-18 09:13:43.830 ,5,1,0.,24.0,0.,24.0,0.,24.0,0.,24.0
1979-07-18 09:14:07.830 ,1,1,0.,24.0,0.,24.0,0.,24.0,0.,24.0
1979-07-18 09:14:31.830 ,2,1,0.,24.0,0.,24.0,0.,24.0,0.,24.0
1979-07-18 09:14:55.830 ,6,1,0.,24.0,0.,24.0,0.,24.0,0.,24.0
1979-07-18 09:15:19.830 ,5,1,0.,24.0,0.,24.0,0.,24.0,0.,24.0
1979-07-18 09:15:43.830 ,1,1,0.,24.0,0.,24.0,0.,24.0,0.,24.0
1979-07-18 09:16:07.830 ,2,1,0.,24.0,0.,24.0,0.,24.0,0.,24.0
1979-07-18 09:16:31.830 ,6,1,0.,24.0,0.,24.0,0.,24.0,0.,24.0
1979-07-18 09:16:55.830 ,5,1,0.,24.0,0.,24.0,0.,24.0,0.,24.0
1979-07-18 09:17:19.830 ,1,1,0.,24.0,0.,24.0,0.,24.0,0.,24.0
1979-07-18 09:17:43.830 ,0,0,0.,24.0,0.,24.0,0.,24.0,0.,24.0
1979-07-18 09:18:07.830 ,0,0,0.,24.0,0.,24.0,0.,24.0,0.,24.0
1979-07-18 09:18:31.830 ,5,1,0.,24.0,0.,24.0,0.,24.0,0.,24.0
1979-07-18 09:18:55.830 ,5,0,0.,24.0,0.,24.0,0.,24.0,0.,24.0
1979-07-18 09:19:19.830 ,4,1,0.,24.0,0.,24.0,0.,24.0,0.,24.0
1979-07-18 09:19:43.830 ,4,0,0.,24.0,0.,24.0,0.,24.0,0.,24.0
1979-07-18 09:20:07.830 ,3,1,0.,24.0,0.,24.0,0.,24.0,0.,24.0
1979-07-18 09:20:31.830 ,3,0,0.,24.0,0.,24.0,0.,24.0,0.,24.0
1979-07-18 09:20:55.830 ,2,1,0.,24.0,0.,24.0,0.,24.0,0.,24.0
1979-07-18 09:21:19.830 ,2,0,0.,24.0,0.,24.0,0.,24.0,0.,24.0
1979-07-18 09:21:43.830 ,1,1,0.,24.0,0.,24.0,0.,24.0,0.,24.0
1979-07-18 09:22:07.830 ,1,0,0.,24.0,0.,24.0,0.,24.0,0.,24.0
1979-07-18 09:22:31.830 ,0,1,0.,24.0,0.,24.0,0.,24.0,0.,24.0
1979-07-18 09:22:55.830 ,0,0,0.,24.0,0.,24.0,0.,24.0,0.,24.0
1979-07-18 09:23:19.830 ,0,1,0.,24.0,0.,24.0,0.,24.0,0.,24.0
1979-07-18 09:23:43.830 ,0,0,0.,24.0,0.,24.0,0.,24.0,0.,24.0
1979-07-18 09:24:07.830 ,1,1,0.,24.0,0.,24.0,0.,24.0,0.,24.0
1979-07-18 09:24:31.830 ,1,0,0.,24.0,0.,24.0,0.,24.0,0.,24.0
1979-07-18 09:24:55.830 ,2,1,0.,24.0,0.,24.0,0.,24.0,0.,24.0
1979-07-18 09:25:19.830 ,2,0,0.,24.0,0.,24.0,0.,24.0,0.,24.0
1979-07-18 09:25:43.830 ,3,1,0.,24.0,0.,24.0,0.,24.0,0.,24.0
1979-07-18 09:26:07.830 ,3,0,0.,24.0,0.,24.0,0.,24.0,0.,24.0
1979-07-18 09:26:31.830 ,4,1,0.,24.0,0.,24.0,0.,24.0,0.,24.0
1979-07-18 09:26:55.830 ,4,0,0.,24.0,0.,24.0,0.,24.0,0.,24.0
1979-07-18 09:27:19.830 ,5,1,0.,24.0,0.,24.0,0.,24.0,0.,24.0
1979-07-18 09:27:43.830 ,5,0,0.,24.0,0.,24.0,0.,24.0,0.,24.0
1979-07-18 09:28:07.830 ,6,1,0.,24.0,0.,24.0,0.,24.0,0.,24.0
1979-07-18 09:28:31.830 ,6,0,0.,24.0,0.,24.0,0.,24.0,0.,24.0
1979-07-18 09:28:55.830 ,7,1,0.,24.0,0.,24.0,0.,24.0,0.,24.0
1979-07-18 09:29:19.830 ,7,0,0.,24.0,0.,24.0,0.,24.0,0.,24.0
1979-07-18 09:29:43.830 ,7,1,0.,24.0,0.,24.0,0.,24.0,0.,24.0
1979-07-18 09:30:07.830 ,7,0,0.,24.0,0.,24.0,0.,24.0,0.,24.0
1979-07-18 09:30:31.830 ,6,1,0.,24.0,0.,24.0,0.,24.0,0.,24.0
1979-07-18 09:30:55.830 ,6,0,0.,24.0,0.,24.0,0.,24.0,0.,24.0
1979-07-18 09:31:19.830 ,5,1,0.,24.0,0.,24.0,0.,24.0,0.,24.0
1979-07-18 09:31:43.830 ,5,0,0.,24.0,0.,24.0,0.,24.0,0.,24.0
1979-07-18 09:32:07.830 ,4,1,0.,24.0,0.,24.0,0.,24.0,0.,24.0
1979-07-18 09:32:31.830 ,4,0,0.,24.0,0.,24.0,0.,24.0,0.,24.0
1979-07-18 09:32:55.830 ,3,1,0.,24.0,0.,24.0,0.,24.0,0.,24.0
1979-07-18 09:33:19.830 ,3,0,0.,24.0,0.,24.0,0.,24.0,0.,24.0
1979-07-18 09:33:43.830 ,2,1,0.,24.0,0.,24.0,0.,24.0,0.,24.0
1979-07-18 09:34:07.830 ,2,0,0.,24.0,0.,24.0,0.,24.0,0.,24.0
1979-07-18 09:34:31.830 ,1,1,0.,24.0,0.,24.0,0.,24.0,0.,24.0
1979-07-18 09:34:55.830 ,1,0,0.,24.0,0.,24.0,0.,24.0,0.,24.0
1979-07-18 09:35:19.830 ,0,1,0.,24.0,0.,24.0,0.,24.0,0.,24.0
1979-07-18 09:35:43.830 ,0,0,0.,24.0,0.,24.0,0.,24.0,0.,24.0
1979-07-18 09:36:07.830 ,0,1,0.,24.0,0.,24.0,0.,24.0,0.,24.0
1979-07-18 09:36:31.830 ,0,0,0.,24.0,0.,24.0,0.,24.0,0.,24.0
1979-07-18 09:36:55.830 ,1,1,0.,24.0,0.,24.0,0.,24.0,0.,24.0
1979-07-18 09:37:19.830 ,1,0,0.,24.0,0.,24.0,0.,24.0,0.,24.0
1979-07-18 09:37:43.830 ,2,1,0.,24.0,0.,24.0,0.,24.0,0.,24.0
1979-07-18 09:38:07.830 ,2,0,0.,24.0,0.,24.0,0.,24.0,0.,24.0
1979-07-18 09:38:31.830 ,3,1,0.,24.0,0.,24.0,0.,24.0,0.,24.0
1979-07-18 09:38:55.830 ,3,0,0.,24.0,0.,24.0,0.,24.0,0.,24.0
1979-07-18 09:39:19.830 ,4,1,0.,24.0,0.,24.0,0.,24.0,0.,24.0
1979-07-18 09:39:43.830 ,4,0,0.,24.0,0.,24.0,0.,24.0,0.,24.0
1979-07-18 09:40:07.830 ,5,1,0.,24.0,0.,24.0,0.,24.0,0.,24.0
1979-07-18 09:40:31.830 ,5,0,0.,24.0,0.,24.0,0.,24.0,0.,24.0
1979-07-18 09:40:55.830 ,6,1,0.,24.0,0.,24.0,0.,24.0,0.,24.0
1979-07-18 09:41:19.830 ,6,0,0.,24.0,0.,24.0,0.,24.0,0.,24.0
1979-07-18 09:41:43.830 ,7,1,0.,24.0,0.,24.0,0.,24.0,0.,24.0
1979-07-18 09:42:07.830 ,7,0,0.,24.0,0.,24.0,0.,24.0,0.,24.0
1979-07-18 09:42:31.830 ,7,1,0.,24.0,0.,24.0,0.,24.0,0.,24.0
1979-07-18 09:42:55.830 ,7,0,0.,24.0,0.,24.0,0.,24.0,0.,24.0
1979-07-18 09:43:19.830 ,6,1,0.,24.0,0.,24.0,0.,24.0,0.,24.0
1979-07-18 09:43:43.830 ,6,0,0.,24.0,0.,24.0,0.,24.0,0.,24.0
1979-07-18 09:44:07.830 ,5,1,0.,24.0,0.,24.0,0.,24.0,0.,24.0
1979-07-18 09:44:31.830 ,5,0,0.,24.0,0.,24.0,0.,24.0,0.,24.0
1979-07-18 09:44:55.830 ,4,1,0.,24.0,0.,24.0,0.,24.0,0.,24.0
1979-07-18 09:45:19.830 ,4,0,0.,24.0,0.,24.0,0.,24.0,0.,24.0
1979-07-18 09:45:43.830 ,3,1,0.,24.0,0.,24.0,0.,24.0,0.,24.0
1979-07-18 09:46:07.830 ,3,0,0.,24.0,0.,24.0,0.,24.0,0.,24.0
1979-07-18 09:46:31.830 ,2,1,0.,24.0,0.,24.0,0.,24.0,0.,24.0
1979-07-18 09:46:55.830 ,2,0,0.,24.0,0.,24.0,0.,24.0,0.,24.0
1979-07-18 09:47:19.830 ,1,1,0.,24.0,0.,24.0,0.,24.0,0.,24.0
1979-07-18 09:47:43.830 ,1,0,0.,24.0,0.,24.0,0.,24.0,0.,24.0
1979-07-18 09:48:07.830 ,0,1,0.,24.0,0.,24.0,0.,24.0,0.,24.0
1979-07-18 09:48:31.830 ,0,0,0.,24.0,0.,24.0,0.,24.0,0.,24.0
1979-07-18 09:48:55.830 ,0,1,0.,24.0,0.,24.0,0.,24.0,0.,24.0
1979-07-18 09:49:19.830 ,0,0,0.,24.0,0.,24.0,0.,24.0,0.,24.0
1979-07-18 09:49:43.830 ,1,1,0.,24.0,0.,24.0,0.,24.0,0.,24.0
1979-07-18 09:50:07.830 ,1,0,0.,24.0,0.,24.0,0.,24.0,0.,24.0
1979-07-18 09:50:31.830 ,2,1,0.,24.0,0.,24.0,0.,24.0,0.,24.0
1979-07-18 09:50:55.830 ,2,0,0.,24.0,0.,24.0,0.,24.0,0.,24.0
1979-07-18 09:51:19.830 ,3,1,0.,24.0,0.,24.0,0.,24.0,0.,24.0
1979-07-18 09:51:43.830 ,3,0,0.,24.0,0.,24.0,0.,24.0,0.,24.0
1979-07-18 09:52:07.830 ,4,1,0.,24.0,0.,24.0,0.,24.0,0.,24.0
1979-07-18 09:52:31.830 ,4,0,0.,24.0,0.,24.0,0.,24.0,0.,24.0
1979-07-18 09:52:55.830 ,5,1,0.,24.0,0.,24.0,0.,24.0,0.,24.0
1979-07-18 09:53:19.830 ,5,0,0.,24.0,0.,24.0,0.,24.0,0.,24.0
1979-07-18 09:53:43.830 ,6,1,0.,24.0,0.,24.0,0.,24.0,0.,24.0
1979-07-18 09:54:07.830 ,6,0,0.,24.0,0.,24.0,0.,24.0,0.,24.0
1979-07-18 09:54:31.830 ,7,0,0.,24.0,0.,24.0,0.,24.0,0.,24.0
1979-07-18 09:54:55.830 ,7,0,0.,24.0,0.,24.0,0.,24.0,0.,24.0
1979-07-18 09:55:19.830 ,5,1,0.,24.0,0.,24.0,0.,24.0,0.,24.0
1979-07-18 09:55:43.830 ,1,1,0.,24.0,0.,24.0,0.,24.0,0.,24.0
1979-07-18 09:56:07.830 ,2,1,0.,24.0,0.,24.0,0.,24.0,0.,24.0
1979-07-18 09:56:31.830 ,6,1,0.,24.0,0.,24.0,0.,24.0,0.,24.0
1979-07-18 09:56:55.830 ,5,1,0.,24.0,0.,24.0,0.,24.0,0.,24.0
1979-07-18 09:57:19.830 ,1,1,0.,24.0,0.,24.0,0.,24.0,0.,24.0
1979-07-18 09:57:43.830 ,2,1,0.,24.0,0.,24.0,0.,24.0,0.,24.0
1979-07-18 09:58:07.830 ,6,1,0.,24.0,0.,24.0,0.,24.0,0.,24.0
1979-07-18 09:58:31.830 ,5,1,0.,24.0,0.,24.0,0.,24.0,0.,24.0
1979-07-18 09:58:55.830 ,1,1,0.,24.0,0.,24.0,0.,24.0,0.,24.0
1979-07-18 09:59:19.830 ,2,1,0.,24.0,0.,24.0,0.,24.0,0.,24.0
1979-07-18 09:59:43.830 ,6,1,0.,24.0,0.,24.0,0.,24.0,0.,24.0
1979-07-18 10:00:07.830 ,5,1,0.,24.0,0.,24.0,0.,24.0,0.,24.0
1979-07-18 10:00:31.830 ,1,1,0.,24.0,0.,24.0,0.,24.0,0.,24.0
1979-07-18 10:00:55.830 ,2,1,0.,24.0,0.,24.0,0.,24.0,0.,24.0
1979-07-18 10:01:19.830 ,6,1,0.,24.0,0.,24.0,0.,24.0,0.,24.0
1979-07-18 10:01:43.830 ,5,1,0.,24.0,0.,24.0,0.,24.0,0.,24.0
1979-07-18 10:02:07.830 ,1,1,0.,24.0,0.,24.0,0.,24.0,0.,24.0
1979-07-18 10:02:31.830 ,2,1,0.,24.0,0.,24.0,0.,24.0,0.,24.0
1979-07-18 10:02:55.830 ,6,1,0.,24.0,0.,24.0,0.,24.0,0.,24.0
1979-07-18 10:03:19.830 ,5,1,0.,24.0,0.,24.0,0.,24.0,0.,24.0
1979-07-18 10:03:43.830 ,1,1,0.,24.0,0.,24.0,0.,24.0,0.,24.0
1979-07-18 10:04:07.830 ,2,1,0.,24.0,0.,24.0,0.,24.0,0.,24.0
1979-07-18 10:04:31.830 ,6,1,0.,24.0,0.,24.0,0.,24.0,0.,24.0
1979-07-18 10:04:55.830 ,5,1,0.,24.0,0.,24.0,0.,24.0,0.,24.0
1979-07-18 10:05:19.830 ,1,1,0.,24.0,0.,24.0,0.,24.0,0.,24.0
1979-07-18 10:05:43.830 ,0,0,0.,24.0,0.,24.0,0.,24.0,0.,24.0
1979-07-18 10:06:07.830 ,0,0,0.,24.0,0.,24.0,0.,24.0,0.,24.0
1979-07-18 10:06:31.830 ,5,1,0.,24.0,0.,24.0,0.,24.0,0.,24.0
1979-07-18 10:06:55.830 ,5,0,0.,24.0,0.,24.0,0.,24.0,0.,24.0
1979-07-18 10:07:19.830 ,4,1,0.,24.0,0.,24.0,0.,24.0,0.,24.0
1979-07-18 10:07:43.830 ,4,0,0.,24.0,0.,24.0,0.,24.0,0.,24.0
1979-07-18 10:08:07.830 ,3,1,0.,24.0,0.,24.0,0.,24.0,0.,24.0
1979-07-18 10:08:31.830 ,3,0,0.,24.0,0.,24.0,0.,24.0,0.,24.0
1979-07-18 10:08:55.830 ,2,1,0.,24.0,0.,24.0,0.,24.0,0.,24.0
1979-07-18 10:09:19.830 ,2,0,0.,24.0,0.,24.0,0.,24.0,0.,24.0
1979-07-18 10:09:43.830 ,1,1,0.,24.0,0.,24.0,0.,24.0,0.,24.0
1979-07-18 10:10:07.830 ,1,0,0.,24.0,0.,24.0,0.,24.0,0.,24.0
1979-07-18 10:10:31.830 ,0,1,0.,24.0,0.,24.0,0.,24.0,0.,24.0
1979-07-18 10:10:55.830 ,0,0,0.,24.0,0.,24.0,0.,24.0,0.,24.0
1979-07-18 10:11:19.830 ,0,1,0.,24.0,0.,24.0,0.,24.0,0.,24.0
1979-07-18 10:11:43.830 ,0,0,0.,24.0,0.,24.0,0.,24.0,0.,24.0
1979-07-18 10:12:07.830 ,1,1,0.,24.0,0.,24.0,0.,24.0,0.,24.0
1979-07-18 10:12:31.830 ,1,0,0.,24.0,0.,24.0,0.,24.0,0.,24.0
1979-07-18 10:12:55.830 ,2,1,0.,24.0,0.,24.0,0.,24.0,0.,24.0
1979-07-18 10:13:19.830 ,2,0,0.,24.0,0.,24.0,0.,24.0,0.,24.0
1979-07-18 10:13:43.830 ,3,1,0.,24.0,0.,24.0,0.,24.0,0.,24.0
1979-07-18 10:14:07.830 ,3,0,0.,24.0,0.,24.0,0.,24.0,0.,24.0
1979-07-18 10:14:31.830 ,4,1,0.,24.0,0.,24.0,0.,24.0,0.,24.0
1979-07-18 10:14:55.830 ,4,0,0.,24.0,0.,24.0,0.,24.0,0.,24.0
1979-07-18 10:15:19.830 ,5,1,0.,24.0,0.,24.0,0.,24.0,0.,24.0
1979-07-18 10:15:43.830 ,5,0,0.,24.0,0.,24.0,0.,24.0,0.,24.0
1979-07-18 10:16:07.830 ,6,1,0.,24.0,0.,24.0,0.,24.0,0.,24.0
1979-07-18 10:16:31.830 ,6,0,0.,24.0,0.,24.0,0.,24.0,0.,24.0
1979-07-18 10:16:55.830 ,7,1,0.,24.0,0.,24.0,0.,24.0,0.,24.0
1979-07-18 10:17:19.830 ,7,0,0.,24.0,0.,24.0,0.,24.0,0.,24.0
1979-07-18 10:17:43.830 ,7,1,0.,24.0,0.,24.0,0.,24.0,0.,24.0
1979-07-18 10:18:07.830 ,7,0,0.,24.0,0.,24.0,0.,24.0,0.,24.0
1979-07-18 10:18:31.830 ,6,1,0.,24.0,0.,24.0,0.,24.0,0.,24.0
1979-07-18 10:18:55.830 ,6,0,0.,24.0,0.,24.0,0.,24.0,0.,24.0
1979-07-18 10:19:19.830 ,5,1,0.,24.0,0.,24.0,0.,24.0,0.,24.0
1979-07-18 10:19:43.830 ,5,0,0.,24.0,0.,24.0,0.,24.0,0.,24.0
1979-07-18 10:20:07.830 ,4,1,0.,24.0,0.,24.0,0.,24.0,0.,24.0
1979-07-18 10:20:31.830 ,4,0,0.,24.0,0.,24.0,0.,24.0,0.,24.0
1979-07-18 10:20:55.830 ,3,1,0.,24.0,0.,24.0,0.,24.0,0.,24.0
1979-07-18 10:21:19.830 ,3,0,0.,24.0,0.,24.0,0.,24.0,0.,24.0
1979-07-18 10:21:43.830 ,2,1,0.,24.0,0.,24.0,0.,24.0,0.,24.0
1979-07-18 10:22:07.830 ,2,0,0.,24.0,0.,24.0,0.,24.0,0.,24.0
1979-07-18 10:22:31.830 ,1,1,0.,24.0,0.,24.0,0.,24.0,0.,24.0
1979-07-18 10:22:55.830 ,1,0,0.,24.0,0.,24.0,0.,24.0,0.,24.0
1979-07-18 10:23:19.830 ,0,1,0.,24.0,0.,24.0,0.,24.0,0.,24.0
1979-07-18 10:23:43.830 ,0,0,0.,24.0,0.,24.0,0.,24.0,0.,24.0
1979-07-18 10:24:07.830 ,0,1,0.,24.0,0.,24.0,0.,24.0,0.,24.0
1979-07-18 10:24:31.830 ,0,0,0.,24.0,0.,24.0,0.,24.0,0.,24.0
1979-07-18 10:24:55.830 ,1,1,0.,24.0,0.,24.0,0.,24.0,0.,24.0
1979-07-18 10:25:19.830 ,1,0,0.,24.0,0.,24.0,0.,24.0,0.,24.0
1979-07-18 10:25:43.830 ,2,1,0.,24.0,0.,24.0,0.,24.0,0.,24.0
1979-07-18 10:26:07.830 ,2,0,0.,24.0,0.,24.0,0.,24.0,0.,24.0
1979-07-18 10:26:31.830 ,3,1,0.,24.0,0.,24.0,0.,24.0,0.,24.0
1979-07-18 10:26:55.830 ,3,0,0.,24.0,0.,24.0,0.,24.0,0.,24.0
1979-07-18 10:27:19.830 ,4,1,0.,24.0,0.,24.0,0.,24.0,0.,24.0
1979-07-18 10:27:43.830 ,4,0,0.,24.0,0.,24.0,0.,24.0,0.,24.0
1979-07-18 10:28:07.830 ,5,1,0.,24.0,0.,24.0,0.,24.0,0.,24.0
1979-07-18 10:28:31.830 ,5,0,0.,24.0,0.,24.0,0.,24.0,0.,24.0
1979-07-18 10:28:55.830 ,6,1,0.,24.0,0.,24.0,0.,24.0,0.,24.0
1979-07-18 10:29:19.830 ,6,0,0.,24.0,0.,24.0,0.,24.0,0.,24.0
1979-07-18 10:29:43.830 ,7,1,0.,24.0,0.,24.0,0.,24.0,0.,24.0
1979-07-18 10:30:07.830 ,7,0,0.,24.0,0.,24.0,0.,24.0,0.,24.0
1979-07-18 10:30:31.830 ,7,1,0.,24.0,0.,24.0,0.,24.0,0.,24.0
1979-07-18 10:30:55.830 ,7,0,0.,24.0,0.,24.0,0.,24.0,0.,24.0
1979-07-18 10:31:19.830 ,6,1,0.,24.0,0.,24.0,0.,24.0,0.,24.0
1979-07-18 10:31:43.830 ,6,0,0.,24.0,0.,24.0,0.,24.0,0.,24.0
1979-07-18 10:32:07.830 ,5,1,0.,24.0,0.,24.0,0.,24.0,0.,24.0
1979-07-18 10:32:31.830 ,5,0,0.,24.0,0.,24.0,0.,24.0,0.,24.0
1979-07-18 10:32:55.830 ,4,1,0.,24.0,0.,24.0,0.,24.0,0.,24.0
1979-07-18 10:33:19.830 ,4,0,0.,24.0,0.,24.0,0.,24.0,0.,24.0
1979-07-18 10:33:43.830 ,3,1,0.,24.0,0.,24.0,0.,24.0,0.,24.0
1979-07-18 10:34:07.830 ,3,0,0.,24.0,0.,24.0,0.,24.0,0.,24.0
1979-07-18 10:34:31.830 ,2,1,0.,24.0,0.,24.0,0.,24.0,0.,24.0
1979-07-18 10:34:55.830 ,2,0,0.,24.0,0.,24.0,0.,24.0,0.,24.0
1979-07-18 10:35:19.830 ,1,1,0.,24.0,0.,24.0,0.,24.0,0.,24.0
1979-07-18 10:35:43.830 ,1,0,0.,24.0,0.,24.0,0.,24.0,0.,24.0
1979-07-18 10:36:09.030 ,0,1,0.,24.0,0.,24.0,0.,24.0,0.,24.0
1979-07-18 10:36:31.830 ,0,0,0.,24.0,0.,24.0,0.,24.0,0.,24.0
1979-07-18 10:36:55.830 ,0,1,0.,24.0,0.,24.0,0.,24.0,0.,24.0
1979-07-18 10:37:19.830 ,0,0,0.,24.0,0.,24.0,0.,24.0,0.,24.0
1979-07-18 10:37:43.830 ,1,1,0.,24.0,0.,24.0,0.,24.0,0.,24.0
1979-07-18 10:38:07.830 ,1,0,0.,24.0,0.,24.0,0.,24.0,0.,24.0
1979-07-18 10:38:31.830 ,2,1,0.,24.0,0.,24.0,0.,24.0,0.,24.0
1979-07-18 10:38:55.830 ,2,0,0.,24.0,0.,24.0,0.,24.0,0.,24.0
1979-07-18 10:39:19.830 ,3,1,0.,24.0,0.,24.0,0.,24.0,0.,24.0
1979-07-18 10:39:43.830 ,3,0,0.,24.0,0.,24.0,0.,24.0,0.,24.0
1979-07-18 10:40:07.830 ,4,1,0.,24.0,0.,24.0,0.,24.0,0.,24.0
1979-07-18 10:40:31.830 ,4,0,0.,24.0,0.,24.0,0.,24.0,0.,24.0
1979-07-18 10:40:55.830 ,5,1,0.,24.0,0.,24.0,0.,24.0,0.,24.0
1979-07-18 10:41:19.830 ,5,0,0.,24.0,0.,24.0,0.,24.0,0.,24.0
1979-07-18 10:41:43.830 ,6,1,0.,24.0,0.,24.0,0.,24.0,0.,24.0
1979-07-18 10:42:07.830 ,6,0,0.,24.0,0.,24.0,0.,24.0,0.,24.0
1979-07-18 10:42:31.830 ,7,0,0.,24.0,0.,24.0,0.,24.0,0.,24.0
1979-07-18 10:42:55.830 ,7,0,0.,24.0,0.,24.0,0.,24.0,0.,24.0
1979-07-18 10:43:19.830 ,5,1,0.,24.0,0.,24.0,0.,24.0,0.,24.0
1979-07-18 10:43:43.830 ,1,1,0.,24.0,0.,24.0,0.,24.0,0.,24.0
1979-07-18 10:44:07.830 ,2,1,0.,24.0,0.,24.0,0.,24.0,0.,24.0
1979-07-18 10:44:31.830 ,6,1,0.,24.0,0.,24.0,0.,24.0,0.,24.0
1979-07-18 10:44:55.830 ,5,1,0.,24.0,0.,24.0,0.,24.0,0.,24.0
1979-07-18 10:45:19.830 ,1,1,0.,24.0,0.,24.0,0.,24.0,0.,24.0
1979-07-18 10:45:43.830 ,2,1,0.,24.0,0.,24.0,0.,24.0,0.,24.0
1979-07-18 10:46:07.830 ,6,1,0.,24.0,0.,24.0,0.,24.0,0.,24.0
1979-07-18 10:46:31.830 ,5,1,0.,24.0,0.,24.0,0.,24.0,0.,24.0
1979-07-18 10:46:55.830 ,1,1,0.,24.0,0.,24.0,0.,24.0,0.,24.0
1979-07-18 10:47:19.830 ,2,1,0.,24.0,0.,24.0,0.,24.0,0.,24.0
1979-07-18 10:47:43.830 ,6,1,0.,24.0,0.,24.0,0.,24.0,0.,24.0
1979-07-18 10:48:07.830 ,5,1,0.,24.0,0.,24.0,0.,24.0,0.,24.0
1979-07-18 10:48:31.830 ,1,1,0.,24.0,0.,24.0,0.,24.0,0.,24.0
1979-07-18 10:48:55.830 ,2,1,0.,24.0,0.,24.0,0.,24.0,0.,24.0
1979-07-18 10:49:19.830 ,6,1,0.,24.0,0.,24.0,0.,24.0,0.,24.0
1979-07-18 10:49:43.830 ,5,1,0.,24.0,0.,24.0,0.,24.0,0.,24.0
1979-07-18 10:50:07.830 ,1,1,0.,24.0,0.,24.0,0.,24.0,0.,24.0
1979-07-18 10:50:31.830 ,2,1,0.,24.0,0.,24.0,0.,24.0,0.,24.0
1979-07-18 10:50:55.830 ,6,1,0.,24.0,0.,24.0,0.,24.0,0.,24.0
1979-07-18 10:51:19.830 ,5,1,0.,24.0,0.,24.0,0.,24.0,0.,24.0
1979-07-18 10:51:43.830 ,1,1,0.,24.0,0.,24.0,0.,24.0,0.,24.0
1979-07-18 10:52:07.830 ,2,1,0.,24.0,0.,24.0,0.,24.0,0.,24.0
1979-07-18 10:52:31.830 ,6,1,0.,24.0,0.,24.0,0.,24.0,0.,24.0
1979-07-18 10:52:55.830 ,5,1,0.,24.0,0.,24.0,0.,24.0,0.,24.0
1979-07-18 10:53:19.830 ,1,1,0.,24.0,0.,24.0,0.,24.0,0.,24.0
1979-07-18 10:53:43.830 ,0,0,0.,24.0,0.,24.0,0.,24.0,0.,24.0
1979-07-18 10:54:07.830 ,0,0,0.,24.0,0.,24.0,0.,24.0,0.,24.0
1979-07-18 10:54:31.830 ,5,1,0.,24.0,0.,24.0,0.,24.0,0.,24.0
1979-07-18 10:54:55.830 ,5,0,0.,24.0,0.,24.0,0.,24.0,0.,24.0
1979-07-18 10:55:19.830 ,4,1,0.,24.0,0.,24.0,0.,24.0,0.,24.0
1979-07-18 10:55:43.830 ,4,0,0.,24.0,0.,24.0,0.,24.0,0.,24.0
1979-07-18 10:56:07.830 ,3,1,0.,24.0,0.,24.0,0.,24.0,0.,24.0
1979-07-18 10:56:31.830 ,3,0,0.,24.0,0.,24.0,0.,24.0,0.,24.0
1979-07-18 10:56:55.830 ,2,1,0.,24.0,0.,24.0,0.,24.0,0.,24.0
1979-07-18 10:57:19.830 ,2,0,0.,24.0,0.,24.0,0.,24.0,0.,24.0
1979-07-18 10:57:43.830 ,1,1,0.,24.0,0.,24.0,0.,24.0,0.,24.0
1979-07-18 10:58:07.830 ,1,0,0.,24.0,0.,24.0,0.,24.0,0.,24.0
1979-07-18 10:58:31.830 ,0,1,0.,24.0,0.,24.0,0.,24.0,0.,24.0
1979-07-18 10:58:55.830 ,0,0,0.,24.0,0.,24.0,0.,24.0,0.,24.0
1979-07-18 10:59:19.830 ,0,1,0.,24.0,0.,24.0,0.,24.0,0.,24.0
1979-07-18 10:59:43.830 ,0,0,0.,24.0,0.,24.0,0.,24.0,0.,24.0
1979-07-18 11:00:07.830 ,1,1,0.,24.0,0.,24.0,0.,24.0,0.,24.0
1979-07-18 11:00:31.830 ,1,0,0.,24.0,0.,24.0,0.,24.0,0.,24.0
1979-07-18 11:00:55.830 ,2,1,0.,24.0,0.,24.0,0.,24.0,0.,24.0
1979-07-18 11:01:19.830 ,2,0,0.,24.0,0.,24.0,0.,24.0,0.,24.0
1979-07-18 11:01:43.830 ,3,1,0.,24.0,0.,24.0,0.,24.0,0.,24.0
1979-07-18 11:02:07.830 ,3,0,0.,24.0,0.,24.0,0.,24.0,0.,24.0
1979-07-18 11:02:31.830 ,4,1,0.,24.0,0.,24.0,0.,24.0,0.,24.0
1979-07-18 11:02:55.830 ,4,0,0.,24.0,0.,24.0,0.,24.0,0.,24.0
1979-07-18 11:03:19.830 ,5,1,0.,24.0,0.,24.0,0.,24.0,0.,24.0
1979-07-18 11:03:43.830 ,5,0,0.,24.0,0.,24.0,0.,24.0,0.,24.0
1979-07-18 11:04:07.830 ,6,1,0.,24.0,0.,24.0,0.,24.0,0.,24.0
1979-07-18 11:04:31.830 ,6,0,0.,24.0,0.,24.0,0.,24.0,0.,24.0
1979-07-18 11:04:55.830 ,7,1,0.,24.0,0.,24.0,0.,24.0,0.,24.0
1979-07-18 11:05:19.830 ,7,0,0.,24.0,0.,24.0,0.,24.0,0.,24.0
1979-07-18 11:05:43.830 ,7,1,0.,24.0,0.,24.0,0.,24.0,0.,24.0
1979-07-18 11:06:07.830 ,7,0,0.,24.0,0.,24.0,0.,24.0,0.,24.0
1979-07-18 11:06:31.830 ,6,1,0.,24.0,0.,24.0,0.,24.0,0.,24.0
1979-07-18 11:06:55.830 ,6,0,0.,24.0,0.,24.0,0.,24.0,0.,24.0
1979-07-18 11:07:19.830 ,5,1,0.,24.0,0.,24.0,0.,24.0,0.,24.0
1979-07-18 11:07:43.830 ,5,0,0.,24.0,0.,24.0,0.,24.0,0.,24.0
1979-07-18 11:08:07.830 ,4,1,0.,24.0,0.,24.0,0.,24.0,0.,24.0
1979-07-18 11:08:31.830 ,4,0,0.,24.0,0.,24.0,0.,24.0,0.,24.0
1979-07-18 11:08:55.830 ,3,1,0.,24.0,0.,24.0,0.,24.0,0.,24.0
1979-07-18 11:09:19.830 ,3,0,0.,24.0,0.,24.0,0.,24.0,0.,24.0
1979-07-18 11:09:43.830 ,2,1,0.,24.0,0.,24.0,0.,24.0,0.,24.0
1979-07-18 11:10:07.830 ,2,0,0.,24.0,0.,24.0,0.,24.0,0.,24.0
1979-07-18 11:10:31.830 ,1,1,0.,24.0,0.,24.0,0.,24.0,0.,24.0
1979-07-18 11:10:55.830 ,1,0,0.,24.0,0.,24.0,0.,24.0,0.,24.0
1979-07-18 11:11:19.830 ,0,1,0.,24.0,0.,24.0,0.,24.0,0.,24.0
1979-07-18 11:11:43.830 ,0,0,0.,24.0,0.,24.0,0.,24.0,0.,24.0
1979-07-18 11:12:07.830 ,0,1,0.,24.0,0.,24.0,0.,24.0,0.,24.0
1979-07-18 11:12:31.830 ,0,0,0.,24.0,0.,24.0,0.,24.0,0.,24.0
1979-07-18 11:12:55.830 ,1,1,0.,24.0,0.,24.0,0.,24.0,0.,24.0
1979-07-18 11:13:19.830 ,1,0,0.,24.0,0.,24.0,0.,24.0,0.,24.0
1979-07-18 11:13:43.830 ,2,1,0.,24.0,0.,24.0,0.,24.0,0.,24.0
1979-07-18 11:14:07.830 ,2,0,0.,24.0,0.,24.0,0.,24.0,0.,24.0
1979-07-18 11:14:31.830 ,3,1,0.,24.0,0.,24.0,0.,24.0,0.,24.0
1979-07-18 11:14:55.830 ,3,0,0.,24.0,0.,24.0,0.,24.0,0.,24.0
1979-07-18 11:15:19.830 ,4,1,0.,24.0,0.,24.0,0.,24.0,0.,24.0
1979-07-18 11:15:43.830 ,4,0,0.,24.0,0.,24.0,0.,24.0,0.,24.0
1979-07-18 11:16:07.830 ,5,1,0.,24.0,0.,24.0,0.,24.0,0.,24.0
1979-07-18 11:16:31.830 ,5,0,0.,24.0,0.,24.0,0.,24.0,0.,24.0
1979-07-18 11:16:55.830 ,6,1,0.,24.0,0.,24.0,0.,24.0,0.,24.0
1979-07-18 11:17:19.830 ,6,0,0.,24.0,0.,24.0,0.,24.0,0.,24.0
1979-07-18 11:17:43.830 ,7,1,0.,24.0,0.,24.0,0.,24.0,0.,24.0
1979-07-18 11:18:07.830 ,7,0,0.,24.0,0.,24.0,0.,24.0,0.,24.0
1979-07-18 11:18:31.830 ,7,1,0.,24.0,0.,24.0,0.,24.0,0.,24.0
1979-07-18 11:18:55.830 ,7,0,0.,24.0,0.,24.0,0.,24.0,0.,24.0
1979-07-18 11:19:19.830 ,6,1,0.,24.0,0.,24.0,0.,24.0,0.,24.0
1979-07-18 11:19:43.830 ,6,0,0.,24.0,0.,24.0,0.,24.0,0.,24.0
1979-07-18 11:20:07.830 ,5,1,0.,24.0,0.,24.0,0.,24.0,0.,24.0
1979-07-18 11:20:31.830 ,5,0,0.,24.0,0.,24.0,0.,24.0,0.,24.0
1979-07-18 11:20:55.830 ,4,1,0.,24.0,0.,24.0,0.,24.0,0.,24.0
1979-07-18 11:21:19.830 ,4,0,0.,24.0,0.,24.0,0.,24.0,0.,24.0
1979-07-18 11:21:43.830 ,3,1,0.,24.0,0.,24.0,0.,24.0,0.,24.0
1979-07-18 11:22:07.830 ,3,0,0.,24.0,0.,24.0,0.,24.0,0.,24.0
1979-07-18 11:22:31.830 ,2,1,0.,24.0,0.,24.0,0.,24.0,0.,24.0
1979-07-18 11:22:55.830 ,2,0,0.,24.0,0.,24.0,0.,24.0,0.,24.0
1979-07-18 11:23:19.830 ,1,1,0.,24.0,0.,24.0,0.,24.0,0.,24.0
1979-07-18 11:23:43.830 ,1,0,0.,24.0,0.,24.0,0.,24.0,0.,24.0
1979-07-18 11:24:07.830 ,0,1,0.,24.0,0.,24.0,0.,24.0,0.,24.0
1979-07-18 11:24:31.830 ,0,0,0.,24.0,0.,24.0,0.,24.0,0.,24.0
1979-07-18 11:24:55.830 ,0,1,0.,24.0,0.,24.0,0.,24.0,0.,24.0
1979-07-18 11:25:19.830 ,0,0,0.,24.0,0.,24.0,0.,24.0,0.,24.0
1979-07-18 11:25:43.830 ,1,1,0.,24.0,0.,24.0,0.,24.0,0.,24.0
1979-07-18 11:26:07.830 ,1,0,0.,24.0,0.,24.0,0.,24.0,0.,24.0
1979-07-18 11:26:31.830 ,2,1,0.,24.0,0.,24.0,0.,24.0,0.,24.0
1979-07-18 11:26:55.830 ,2,0,0.,24.0,0.,24.0,0.,24.0,0.,24.0
1979-07-18 11:27:19.830 ,3,1,0.,24.0,0.,24.0,0.,24.0,0.,24.0
1979-07-18 11:27:43.830 ,3,0,0.,24.0,0.,24.0,0.,24.0,0.,24.0
1979-07-18 11:28:07.830 ,4,1,0.,24.0,0.,24.0,0.,24.0,0.,24.0
1979-07-18 11:28:31.830 ,4,0,0.,24.0,0.,24.0,0.,24.0,0.,24.0
1979-07-18 11:28:55.830 ,5,1,0.,24.0,0.,24.0,0.,24.0,0.,24.0
1979-07-18 11:29:19.830 ,5,0,0.,24.0,0.,24.0,0.,24.0,0.,24.0
1979-07-18 11:29:43.830 ,6,1,0.,24.0,0.,24.0,0.,24.0,0.,24.0
1979-07-18 11:30:07.830 ,6,0,0.,24.0,0.,24.0,0.,24.0,0.,24.0
1979-07-18 11:30:31.830 ,7,0,0.,24.0,0.,24.0,0.,24.0,0.,24.0
1979-07-18 11:30:55.830 ,7,0,0.,24.0,0.,24.0,0.,24.0,0.,24.0
1979-07-18 11:31:19.830 ,5,1,0.,24.0,0.,24.0,0.,24.0,0.,24.0
1979-07-18 11:31:43.830 ,1,1,0.,24.0,0.,24.0,0.,24.0,0.,24.0
1979-07-18 11:32:07.830 ,2,1,0.,24.0,0.,24.0,0.,24.0,0.,24.0
1979-07-18 11:32:31.830 ,6,1,0.,24.0,0.,24.0,0.,24.0,0.,24.0
1979-07-18 11:32:55.830 ,5,1,0.,24.0,0.,24.0,0.,24.0,0.,24.0
1979-07-18 11:33:19.830 ,1,1,0.,24.0,0.,24.0,0.,24.0,0.,24.0
1979-07-18 11:33:43.830 ,2,1,0.,24.0,0.,24.0,0.,24.0,0.,24.0
1979-07-18 11:34:07.830 ,6,1,0.,24.0,0.,24.0,0.,24.0,0.,24.0
1979-07-18 11:34:31.820 ,5,1,0.,24.0,0.,24.0,0.,24.0,0.,24.0